Probability
19 48 100 100 100 100 100 100 100 100 100 100 100 100 100 100 100 100 97 97 97 100 97 97 100 94 94 97 90 90 97 100 100 90 94 97 97 97 94 97 100 100 100
29 68 100 100 100 100 100 100 100 100 100 100 100 100 100 100 100 100 97 97 97 97 97 94 94 87 87 87 97 100 100 100 100 97 97 100 97 97 94 90 100 100 100
45 74 87 100 100 100 100 100 100 100 100 100 100 100 100 100 97 97 97 94 94 87 87 84 90 84 90 97 100 100 100 100 100 97 100 84 90 97 94 97 100 100 100
42 61 65 100 100 100 100 100 100 100 100 100 100 100 100 100 97 97 97 87 90 87 81 77 74 84 97 100 100 100 100 100 100 100 84 71 74 100 97 100 100 100 100
52 65 100 100 100 100 100 100 100 100 100 100 100 100 100 100 97 94 97 87 84 84 81 84 84 87 97 100 100 100 100 100 97 90 77 77 97 100 100 100 100 100 100
68 65 100 100 100 100 100 100 100 100 100 100 100 100 100 97 100 100 100 90 94 94 90 87 90 90 94 94 97 97 97 97 90 42 58 77 94 100 100 100 100 100 100
52 74 94 100 100 100 100 100 100 100 100 100 100 100 100 100 97 97 94 94 94 94 97 97 97 94 94 97 97 97 97 90 74 52 58 58 100 100 100 100 100 100 100
45 65 100 100 100 100 100 100 100 100 100 100 100 100 100 97 97 100 100 100 94 94 94 94 94 94 90 97 100 100 97 97 58 35 58 58 100 100 100 100 100 100 100
48 74 97 87 100 100 100 100 100 100 100 100 100 100 97 97 97 94 97 94 97 97 97 90 94 94 97 100 100 100 97 90 81 68 39 77 100 100 100 100 100 100 100
74 87 100 90 97 90 87 100 100 100 97 97 97 97 94 94 84 81 87 84 81 81 90 90 90 84 90 97 100 100 97 90 65 65 52 90 100 100 100 100 100 100 100
97 90 84 94 100 97 90 100 100 100 100 97 94 84 87 87 77 77 77 77 81 84 84 87 90 90 90 90 87 87 87 81 48 52 87 97 97 97 97 100 100 100 100
94 90 97 94 94 90 94 100 100 97 94 90 90 77 77 81 65 65 61 74 74 84 77 77 77 77 81 77 87 87 74 52 45 52 81 90 97 97 97 100 97 100 100
94 97 97 97 94 90 94 97 94 87 90 81 84 77 68 55 48 48 58 52 68 58 68 65 55 52 52 77 77 68 68 48 45 52 77 87 84 94 90 94 94 97 97
94 97 97 97 97 97 97 94 94 87 77 61 58 45 32 29 32 35 35 35 42 39 65 48 61 58 52 45 52 65 65 61 55 55 90 84 81 87 87 87 90 90 87
87 94 90 94 97 97 97 90 81 77 52 48 42 26 26 26 23 19 26 26 23 29 32 35 42 42 35 39 35 35 45 48 52 48 55 68 65 77 84 87 87 81 77
90 94 97 94 97 97 97 81 74 45 42 16 16 16 16 10 13 13 10 16 10 16 19 23 13 23 23 19 23 26 32 32 32 39 42 48 48 61 68 74 74 84 77
87 90 94 94 94 90 87 65 52 45 23 13 10 10 3 0 3 0 3 3 3 6 10 10 10 6 16 16 16 19 26 23 23 23 23 29 42 52 61 61 65 81 77
87 87 87 71 77 84 71 58 48 35 10 3 6 3 0 0 3 3 0 0 3 3 6 10 6 6 6 6 10 19 19 26 10 13 23 23 39 35 39 58 58 65 71
87 87 81 77 74 68 61 58 35 26 10 6 0 0 0 0 0 0 0 0 3 3 3 3 10 3 3 3 3 13 10 10 6 3 0 16 19 29 29 42 32 58 52
65 68 74 77 74 68 65 52 42 19 13 3 0 0 0 0 0 0 0 0 0 0 3 6 6 6 0 0 0 0 0 3 3 3 0 0 6 13 19 26 29 45 45
68 61 61 61 65 68 58 42 32 19 13 0 0 0 0 0 0 0 0 0 0 0 0 0 3 0 0 0 0 0 0 0 0 0 0 0 0 3 10 16 29 32 35
61 58 61 68 65 65 58 52 39 26 6 3 0 6 3 0 0 0 0 0 0 0 0 0 0 0 0 0 0 0 0 0 0 0 0 0 0 0 0 3 13 23 19
65 55 42 61 55 61 55 42 29 26 13 6 6 16 0 0 0 0 0 0 0 0 0 0 0 0 0 0 0 0 0 0 0 0 0 0 0 0 0 0 3 3 10
52 39 42 58 58 61 58 42 26 16 10 13 13 6 10 0 0 0 0 0 0 0 0 0 0 0 0 0 0 0 0 0 0 0 0 0 0 0 0 0 0 0 3
39 35 45 55 58 61 58 55 58 19 19 10 10 19 10 3 3 0 0 0 0 0 0 0 0 0 0 0 0 0 0 0 0 0 0 0 0 0 0 0 0 0 0
48 35 35 52 61 65 68 55 71 52 35 19 29 16 6 3 3 0 0 3 0 0 0 0 0 0 0 0 0 0 0 0 0 0 0 0 0 0 0 0 3 0 0
Height
5906 5906 5907 5908 5908 5909 5910 5910 5910 5911 5911 5910 5910 5910 5910 5910 5910 5910 5910 5910 5910 5909 5909 5909 5909 5908 5908 5907 5907 5906 5905 5904 5904 5903 5903 5902 5902 5901 5901 5902 5902 5903 5903
5905 5905 5906 5907 5908 5909 5909 5910 5910 5910 5910 5910 5910 5910 5910 5910 5910 5910 5910 5910 5910 5909 5909 5909 5909 5908 5908 5907 5907 5906 5905 5905 5905 5904 5903 5903 5902 5902 5902 5903 5903 5904 5904
5903 5904 5905 5906 5907 5908 5909 5909 5910 5910 5909 5909 5909 5909 5909 5909 5909 5909 5909 5909 5909 5909 5909 5908 5908 5908 5908 5907 5907 5906 5905 5905 5905 5904 5904 5904 5903 5903 5903 5904 5904 5905 5905
5902 5902 5903 5905 5906 5907 5908 5908 5909 5909 5909 5909 5909 5909 5909 5909 5909 5909 5909 5909 5908 5908 5908 5908 5908 5907 5907 5907 5906 5906 5905 5905 5905 5905 5904 5904 5904 5904 5904 5904 5905 5906 5906
5900 5901 5902 5903 5905 5906 5906 5907 5907 5908 5908 5908 5908 5908 5908 5908 5908 5908 5908 5908 5907 5907 5907 5907 5907 5906 5906 5906 5905 5905 5905 5905 5905 5905 5904 5904 5904 5904 5904 5905 5905 5906 5907
5899 5900 5901 5902 5903 5904 5905 5906 5906 5907 5907 5907 5907 5907 5907 5906 5906 5906 5906 5906 5906 5906 5905 5905 5905 5905 5905 5904 5904 5904 5904 5904 5904 5904 5904 5904 5904 5904 5905 5905 5906 5906 5907
5897 5898 5900 5901 5902 5903 5903 5904 5905 5905 5905 5905 5905 5905 5905 5905 5905 5904 5904 5904 5904 5903 5903 5903 5903 5903 5903 5903 5903 5903 5903 5903 5903 5903 5904 5904 5904 5904 5905 5905 5905 5906 5907
5895 5897 5898 5899 5900 5901 5902 5902 5903 5903 5903 5903 5903 5903 5903 5903 5902 5902 5901 5901 5901 5901 5901 5901 5900 5901 5901 5901 5901 5901 5901 5901 5902 5902 5902 5903 5903 5904 5904 5904 5905 5906 5907
5893 5895 5896 5897 5898 5899 5900 5901 5901 5901 5901 5901 5901 5901 5901 5900 5900 5899 5899 5899 5898 5898 5898 5898 5898 5898 5898 5898 5898 5899 5899 5899 5900 5900 5901 5901 5902 5902 5903 5904 5904 5905 5906
5892 5893 5895 5896 5897 5897 5898 5899 5899 5899 5899 5899 5899 5899 5898 5898 5897 5897 5897 5896 5896 5896 5895 5895 5895 5895 5896 5896 5896 5896 5896 5897 5898 5898 5899 5899 5900 5901 5901 5902 5903 5904 5905
5890 5891 5893 5894 5895 5896 5896 5896 5897 5897 5897 5897 5897 5896 5896 5896 5895 5895 5894 5894 5893 5893 5893 5893 5893 5892 5892 5893 5893 5893 5893 5894 5895 5895 5896 5897 5898 5899 5899 5900 5901 5902 5903
5887 5889 5891 5892 5893 5894 5894 5895 5895 5895 5895 5895 5895 5894 5894 5893 5893 5892 5892 5891 5891 5890 5890 5890 5890 5889 5889 5889 5889 5890 5890 5891 5892 5892 5894 5895 5895 5896 5897 5898 5898 5899 5901
5885 5887 5888 5890 5891 5892 5892 5893 5893 5893 5893 5893 5893 5892 5892 5891 5891 5890 5890 5889 5888 5888 5888 5887 5887 5887 5887 5886 5887 5887 5887 5888 5888 5889 5890 5892 5893 5893 5894 5895 5896 5896 5898
5882 5884 5886 5887 5889 5889 5890 5891 5891 5891 5891 5891 5891 5890 5890 5889 5889 5888 5887 5887 5886 5886 5885 5885 5884 5884 5884 5884 5884 5884 5885 5885 5885 5886 5887 5888 5889 5890 5891 5891 5892 5893 5894
5879 5881 5883 5885 5886 5887 5888 5889 5889 5889 5889 5889 5889 5888 5888 5888 5887 5887 5886 5885 5884 5884 5883 5882 5882 5881 5881 5881 5882 5882 5882 5882 5883 5883 5884 5885 5886 5887 5888 5888 5889 5890 5891
5876 5879 5881 5882 5884 5885 5886 5887 5887 5887 5888 5888 5888 5887 5887 5886 5886 5885 5884 5884 5883 5882 5882 5881 5880 5880 5879 5879 5879 5879 5880 5880 5880 5881 5881 5882 5883 5884 5884 5885 5886 5886 5888
5873 5876 5878 5880 5882 5883 5884 5885 5886 5886 5886 5886 5886 5886 5885 5885 5884 5884 5883 5882 5881 5881 5880 5879 5879 5878 5878 5878 5878 5878 5878 5878 5878 5878 5878 5879 5879 5880 5881 5882 5882 5883 5884
5871 5873 5876 5878 5879 5881 5882 5883 5884 5884 5885 5885 5885 5884 5884 5884 5883 5882 5882 5881 5880 5880 5879 5878 5878 5877 5877 5876 5876 5876 5876 5876 5876 5876 5876 5876 5876 5877 5877 5878 5879 5879 5880
5868 5870 5873 5875 5877 5879 5880 5881 5882 5883 5884 5884 5884 5883 5883 5883 5882 5881 5881 5880 5880 5879 5878 5877 5877 5876 5876 5875 5875 5874 5874 5874 5874 5874 5874 5874 5874 5874 5874 5875 5875 5876 5877
5865 5868 5870 5873 5875 5877 5879 5880 5881 5882 5882 5883 5883 5883 5882 5882 5881 5881 5880 5880 5879 5878 5878 5877 5876 5875 5874 5874 5873 5873 5872 5872 5871 5871 5871 5871 5871 5871 5871 5871 5872 5872 5873
5862 5865 5868 5870 5872 5875 5877 5879 5880 5881 5881 5882 5882 5882 5882 5881 5881 5880 5880 5879 5878 5878 5877 5876 5875 5874 5873 5873 5872 5872 5871 5870 5869 5869 5869 5869 5868 5868 5868 5868 5868 5869 5869
5859 5862 5865 5868 5871 5874 5876 5877 5879 5879 5880 5881 5881 5881 5881 5881 5880 5880 5880 5879 5878 5877 5877 5876 5875 5874 5873 5872 5871 5870 5870 5869 5868 5867 5866 5866 5866 5865 5865 5865 5865 5865 5865
5857 5860 5864 5866 5870 5872 5874 5876 5877 5878 5879 5880 5880 5880 5880 5880 5880 5880 5879 5879 5878 5877 5877 5876 5874 5873 5872 5871 5870 5869 5868 5867 5866 5865 5864 5863 5863 5862 5862 5862 5862 5862 5862
5856 5859 5862 5865 5868 5871 5873 5874 5876 5877 5878 5879 5879 5880 5880 5879 5879 5879 5879 5878 5878 5877 5876 5875 5874 5873 5872 5870 5869 5867 5866 5865 5864 5863 5862 5861 5860 5859 5858 5858 5858 5858 5857
5856 5858 5861 5864 5867 5869 5871 5873 5874 5875 5877 5877 5878 5879 5879 5879 5878 5878 5878 5877 5877 5876 5875 5874 5873 5871 5870 5869 5867 5866 5864 5862 5861 5860 5859 5858 5857 5856 5855 5854 5853 5853 5853
5855 5857 5860 5863 5865 5868 5870 5871 5873 5874 5875 5876 5877 5877 5878 5878 5877 5877 5877 5876 5876 5875 5874 5873 5871 5870 5868 5867 5865 5863 5862 5860 5858 5857 5855 5854 5853 5852 5851 5850 5849 5849 5848
Wind_Speed
10 9 8 8 7 7 7 6 5 5 4 4 4 4 4 4 4 4 4 3 3 3 3 3 3 4 4 5 5 5 5 5 5 5 4 4 4 6 7 8 8 9 8
11 10 9 8 7 7 7 7 6 5 4 3 3 2 2 1 1 1 2 2 2 2 2 2 2 2 3 3 3 3 3 3 4 4 3 3 4 5 7 7 7 8 8
11 10 9 8 8 8 8 7 6 6 5 4 3 2 1 1 1 1 2 2 2 2 2 2 2 2 2 2 2 1 1 2 2 3 3 3 4 5 6 6 7 7 7
11 10 9 8 8 8 8 8 7 6 5 4 4 3 3 3 3 3 3 3 3 3 3 2 2 2 2 2 1 1 0 1 1 2 2 3 3 4 5 5 6 7 7
12 10 9 8 8 8 8 8 7 6 5 5 4 4 4 4 4 4 4 4 4 4 4 4 3 3 3 3 2 1 1 2 2 2 3 3 3 4 5 5 6 7 7
12 10 9 9 9 9 9 8 7 6 5 5 5 6 6 6 6 6 6 6 6 6 6 5 5 5 4 3 3 3 3 3 3 3 4 4 4 4 5 6 7 7 7
12 11 10 10 10 10 9 8 7 6 6 6 6 6 6 6 7 7 7 8 8 8 8 7 7 6 5 5 5 5 5 5 5 5 5 5 6 6 6 7 8 8 8
13 12 11 11 10 10 8 8 7 7 6 6 6 6 7 7 7 8 8 9 9 9 9 9 8 8 7 7 6 6 6 6 7 7 7 7 7 7 8 7 8 9 9
14 12 12 11 11 10 9 8 7 7 7 7 7 7 7 8 8 8 8 9 9 8 8 9 9 8 8 8 7 7 8 8 8 8 8 8 9 9 9 9 9 10 10
15 14 13 12 11 10 9 8 8 8 8 7 8 8 8 8 8 8 9 9 8 8 8 9 9 9 10 10 10 9 9 10 10 10 10 10 10 10 10 10 11 11 11
16 15 14 12 12 11 10 9 9 9 8 8 8 8 8 8 8 8 9 9 9 9 9 9 8 9 9 10 10 10 9 10 11 11 12 11 11 11 11 11 12 12 13
17 16 15 14 13 12 11 10 9 8 8 8 8 7 7 7 8 9 9 9 9 9 9 8 8 8 9 9 10 10 10 10 11 12 12 12 12 12 12 13 12 14 15
19 18 16 15 14 13 12 11 9 8 8 7 7 7 6 7 7 8 8 8 8 8 8 8 8 8 9 9 9 10 11 11 11 12 13 14 14 13 14 14 14 15 16
20 20 18 16 15 14 12 11 9 8 7 6 6 6 6 6 6 7 7 7 8 8 8 8 8 8 8 9 9 10 11 11 12 12 13 15 15 15 15 15 15 16 17
21 20 17 16 14 13 12 11 9 7 6 5 5 5 5 6 6 6 7 7 7 7 7 7 7 7 7 7 8 10 10 10 11 12 13 15 16 16 16 16 16 16 16
19 20 18 16 13 12 11 9 7 6 5 4 4 4 4 5 5 5 5 6 6 6 6 6 6 6 6 6 7 8 9 9 10 11 12 14 16 17 17 17 17 17 17
19 19 19 16 14 12 11 9 7 6 5 4 3 3 3 4 4 4 5 5 5 5 6 6 6 5 5 6 6 6 7 8 9 10 10 12 14 16 17 18 18 18 19
19 20 19 16 14 13 11 9 7 5 4 3 3 2 2 3 3 4 4 5 5 5 5 6 6 5 6 6 6 6 7 8 8 9 10 11 13 15 16 17 18 18 19
19 19 18 17 15 13 11 9 7 5 4 3 2 1 2 2 3 3 4 4 5 5 5 5 6 5 5 5 6 6 7 8 8 9 10 11 12 14 15 16 17 17 18
19 19 19 17 15 13 11 8 7 5 4 3 2 1 1 1 2 3 4 4 5 5 5 5 6 6 6 6 6 6 6 8 8 9 10 11 13 14 14 15 16 16 17
20 19 19 16 15 13 10 9 7 6 4 3 2 1 0 1 2 2 3 4 5 5 6 6 6 6 6 6 6 6 7 7 8 9 10 11 12 13 14 15 16 17 17
18 19 19 17 15 13 11 9 8 6 5 4 3 2 1 1 2 2 3 4 5 6 6 6 6 6 7 7 7 7 7 8 8 9 10 11 12 13 14 15 16 17 18
17 18 18 15 15 13 11 10 8 7 5 4 4 3 2 1 2 2 2 4 5 5 6 6 7 7 7 8 8 8 8 8 9 10 11 11 13 14 15 16 17 18 19
17 17 17 16 14 13 12 10 9 8 6 5 4 3 2 1 1 1 1 3 4 5 5 6 7 7 8 9 9 9 10 10 11 11 12 13 13 14 16 17 18 19 19
16 16 16 15 14 13 11 11 9 8 7 6 5 4 3 2 2 1 1 2 3 4 5 6 7 9 10 11 11 11 11 12 12 12 13 14 14 15 16 17 18 19 21
15 15 15 15 14 13 12 11 10 9 8 6 6 5 5 4 4 4 3 4 4 5 6 7 8 10 11 12 13 13 13 13 14 14 14 15 15 15 17 18 19 20 21
Wind_Direction
185 185 189 195 200 207 212 214 211 198 179 161 143 128 116 105 95 85 75 65 59 54 46 40 43 40 35 36 42 46 48 53 61 70 81 103 124 132 136 136 136 134 130
192 191 193 199 205 213 217 220 221 215 207 194 176 156 139 116 84 62 43 26 16 11 8 9 16 17 16 21 33 45 52 57 64 74 87 104 132 141 145 144 143 141 141
197 197 196 202 209 214 219 225 228 227 226 224 222 217 228 253 286 315 329 334 332 325 324 331 341 349 355 3 13 34 61 68 86 91 104 115 129 139 148 154 151 152 153
201 200 202 206 212 216 221 227 230 235 239 243 247 252 261 269 276 286 296 300 304 300 295 298 308 315 323 333 327 313 193 144 124 130 138 142 143 149 160 164 162 165 166
203 204 207 210 216 220 223 228 234 239 242 247 253 258 264 269 274 280 286 288 288 287 285 284 287 294 298 299 282 254 230 215 191 181 176 171 172 173 174 176 176 176 177
207 210 212 213 218 221 224 227 232 237 244 250 253 259 265 271 275 279 286 286 283 283 280 279 279 279 281 284 270 250 238 226 215 208 202 198 198 198 193 189 185 186 186
212 213 216 219 219 222 225 229 235 244 249 255 260 267 275 280 284 286 287 286 283 281 279 278 277 274 268 266 262 250 241 234 228 220 215 213 211 212 209 207 195 195 198
212 215 218 222 224 226 229 233 240 248 255 263 269 276 281 285 287 289 289 289 287 285 283 281 276 271 270 266 258 249 243 239 234 226 220 220 220 219 217 209 202 202 203
211 216 222 225 228 230 234 239 245 252 260 268 275 281 285 289 291 295 296 294 291 290 288 282 275 270 267 263 257 251 241 237 234 229 225 226 225 224 221 217 212 209 208
212 217 225 230 232 236 238 244 250 256 263 273 279 284 288 290 293 297 300 300 296 294 291 287 280 270 265 263 259 257 248 235 234 234 230 228 228 227 226 223 219 214 212
216 220 226 231 237 240 242 244 248 256 263 272 277 281 285 290 293 296 300 302 300 299 296 292 283 278 267 261 260 258 251 241 237 237 235 233 233 231 229 227 225 219 216
217 222 228 233 238 242 243 245 250 255 263 270 275 280 286 288 293 297 300 304 302 300 298 295 292 286 277 269 263 259 255 246 240 237 234 233 234 236 234 231 231 227 221
218 223 228 233 237 240 241 244 248 255 262 268 275 280 283 288 296 299 301 304 305 302 298 297 296 291 283 273 263 260 259 252 247 241 236 235 236 238 239 236 236 234 228
221 223 228 234 238 238 239 242 246 251 258 267 277 280 284 291 299 303 306 309 309 307 305 305 298 293 287 277 266 261 260 256 251 248 243 239 238 239 242 242 242 240 235
220 222 225 233 236 236 237 239 243 246 252 268 274 279 289 297 302 304 307 308 308 308 308 308 306 297 291 283 274 267 262 259 255 253 248 245 243 244 247 247 248 245 241
218 220 222 225 231 234 234 230 232 234 243 257 267 280 293 300 307 311 313 313 312 312 311 310 313 305 295 287 280 273 265 264 259 261 258 250 247 248 251 252 252 249 245
218 218 218 222 222 225 226 224 228 229 233 247 263 279 294 307 315 321 325 325 322 319 317 318 322 314 307 299 290 281 272 266 265 265 261 259 254 252 254 255 256 252 249
215 216 216 217 218 221 223 223 226 229 232 240 254 277 299 313 327 336 335 336 334 332 329 328 331 322 313 305 297 289 281 276 271 269 264 263 261 260 259 258 257 254 252
211 212 214 216 217 216 217 218 221 221 219 223 235 266 296 321 347 354 353 349 348 348 346 342 340 337 329 316 305 297 288 281 274 272 269 264 264 264 262 260 260 257 256
212 212 214 216 213 211 212 212 210 209 207 210 213 241 294 347 7 9 7 4 360 357 353 348 344 342 339 333 323 309 299 287 279 275 271 267 267 267 265 264 261 259 257
213 213 212 210 208 209 209 208 206 203 200 199 196 206 99 37 32 26 25 23 16 11 7 1 356 351 345 337 329 320 311 301 292 285 279 275 272 269 266 265 264 261 259
212 208 206 209 206 205 205 205 200 194 191 188 188 178 138 86 70 58 44 36 28 23 19 17 14 9 2 351 340 329 317 307 301 296 288 281 277 274 269 266 264 264 263
204 200 200 203 201 204 206 203 196 189 185 187 189 179 154 123 88 63 43 33 26 24 22 19 17 12 5 357 348 337 327 316 307 300 295 289 283 278 275 272 269 267 265
198 198 198 200 202 205 206 201 195 192 190 192 191 184 177 165 112 51 25 17 12 9 10 10 7 3 358 352 346 340 332 323 314 306 299 293 288 283 278 274 271 268 267
199 199 201 200 201 203 205 201 201 197 196 196 195 197 203 213 227 267 312 337 346 347 349 351 351 349 346 344 340 334 328 322 316 310 304 298 291 286 282 278 275 271 268
204 202 202 203 204 204 207 207 205 204 205 206 208 215 225 234 243 257 278 300 312 319 323 327 332 333 333 333 333 330 325 321 316 310 305 300 295 290 285 281 278 275 272